Weather History for Saginaw, MI

Change the Weather History Date:

Tuesday, September 18, 2012

  Actual Average Record
Temperature  
Mean Temperature 54 °F 60 °F  
Max Temperature 64 °F 71 °F 84 °F (2007)
Min Temperature 42 °F 50 °F 41 °F (1999)
Degree Days  
Heating Degree Days 10    
Month to date heating degree days  
Since 1 July heating degree days  
Cooling Degree Days 0    
Month to date cooling degree days  
Year to date cooling degree days  
Growing Degree Days 4 (Base 50)    
Moisture  
Dew Point 45 °F    
Average Humidity 70    
Maximum Humidity 89    
Minimum Humidity 44    
Precipitation  
Precipitation 0.05 in 0.13 in 0.09 in (2010)
Month to date precipitation 2.32  
Year to date precipitation 22.84  
Snow  
Snow 0.00 in - - ()
Month to date snowfall  
Since 1 July snowfall  
Since 1 September snowfall  
Snow Depth -    
Sea Level Pressure  
Sea Level Pressure 29.76 in    
Wind  
Wind Speed 11 mph (NW)    
Max Wind Speed 20 mph    
Max Gust Speed 30 mph    
Visibility 10 miles    
Events Rain    
T = Trace of Precipitation, MM = Missing Value Source: NWS Daily Summary

Daily Weather History Graph

Daily Weather History Graph

Search for Another Location

Airport:

Trip Planner

Search our weather history database for the weather conditions in past years. The results will help you decide how hot, cold, wet, or windy it might be!

Date:

Astronomy

Sep. 18, 2012 Rise Set
Actual Time 7:19 AM EDT 7:40 PM EDT
Civil Twilight 6:50 AM EDT 8:08 PM EDT
Nautical Twilight 6:17 AM EDT 8:42 PM EDT
Astronomical Twilight 5:42 AM EDT 9:16 PM EDT
Moon 10:25 AM EDT (9/18) 8:54 PM EDT (9/18)
Length of Visible Light 13h 17m
Length of Day
12h 20m
Waxing Crescent, 9% of the Moon is Illuminated
Sep 18
Waxing Crescent
Sep 22
First Quarter
Sep 29
Full
Oct 8
Last Quarter
Oct 15
New

Hourly Weather History & Observations

Time (EDT) Temp. Windchill Dew Point Humidity Pressure Visibility Wind Dir Wind Speed Gust Speed Precip Events Conditions
12:53 AM 64.0 °F - 55.0 °F 73% 29.66 in 10.0 mi West 6.9 mph - N/A   Mostly Cloudy
1:53 AM 63.0 °F - 55.9 °F 78% 29.65 in 10.0 mi WNW 5.8 mph - N/A   Mostly Cloudy
2:53 AM 62.1 °F - 57.0 °F 84% 29.66 in 10.0 mi WNW 6.9 mph - 0.00 in Rain Light Rain
3:01 AM 62.6 °F - 57.2 °F 82% 29.66 in 10.0 mi WNW 9.2 mph - 0.00 in Rain Light Rain
3:53 AM 57.9 °F - 54.0 °F 87% 29.66 in 10.0 mi NW 16.1 mph - 0.00 in Rain Light Rain
4:53 AM 53.1 °F - 48.9 °F 86% 29.68 in 10.0 mi NNW 13.8 mph - 0.01 in Rain Light Rain
5:01 AM 53.6 °F - 50.0 °F 88% 29.67 in 10.0 mi NNW 12.7 mph - 0.00 in Rain Light Rain
5:53 AM 52.0 °F - 48.9 °F 89% 29.68 in 10.0 mi NNW 10.4 mph - 0.01 in Rain Light Rain
6:53 AM 51.1 °F - 48.0 °F 89% 29.69 in 10.0 mi NW 8.1 mph - 0.00 in   Overcast
7:53 AM 51.8 °F - 46.4 °F 82% 29.70 in 10.0 mi NW 9.2 mph - N/A   Scattered Clouds
8:53 AM 51.1 °F - 46.0 °F 83% 29.72 in 10.0 mi NW 6.9 mph 16.1 mph N/A   Clear
9:53 AM 53.1 °F - 46.0 °F 77% 29.73 in 10.0 mi NNW 17.3 mph 26.5 mph 0.01 in   Overcast
10:53 AM 55.9 °F - 45.0 °F 67% 29.74 in 10.0 mi North 15.0 mph 24.2 mph N/A   Mostly Cloudy
11:46 AM 57.2 °F - 42.8 °F 59% 29.74 in 10.0 mi North 16.1 mph - 0.01 in   Overcast
11:53 AM 57.0 °F - 44.1 °F 62% 29.74 in 10.0 mi NNW 18.4 mph - 0.01 in   Overcast
12:53 PM 57.0 °F - 43.0 °F 59% 29.74 in 10.0 mi NW 13.8 mph - N/A   Mostly Cloudy
1:53 PM 59.0 °F - 43.0 °F 55% 29.74 in 10.0 mi WNW 13.8 mph - 0.01 in   Mostly Cloudy
2:53 PM 59.0 °F - 41.0 °F 51% 29.75 in 10.0 mi WNW 19.6 mph 26.5 mph N/A   Mostly Cloudy
3:53 PM 61.0 °F - 39.9 °F 46% 29.76 in 10.0 mi WNW 17.3 mph 24.2 mph 0.00 in   Scattered Clouds
4:53 PM 57.0 °F - 39.0 °F 51% 29.79 in 10.0 mi NW 19.6 mph 29.9 mph N/A   Mostly Cloudy
5:53 PM 57.9 °F - 36.0 °F 44% 29.81 in 10.0 mi NW 15.0 mph 23.0 mph N/A   Partly Cloudy
6:53 PM 55.9 °F - 37.0 °F 49% 29.84 in 10.0 mi NW 17.3 mph 27.6 mph N/A   Mostly Cloudy
7:53 PM 51.1 °F - 37.0 °F 59% 29.88 in 10.0 mi WNW 13.8 mph 25.3 mph N/A   Overcast
8:53 PM 50.0 °F - 36.0 °F 59% 29.92 in 10.0 mi WNW 11.5 mph - N/A   Mostly Cloudy
9:53 PM 46.9 °F - 37.0 °F 68% 29.95 in 10.0 mi WNW 8.1 mph - N/A   Clear
10:53 PM 45.0 °F 40.1 °F 37.9 °F 76% 29.96 in 10.0 mi West 9.2 mph - N/A   Clear
11:53 PM 42.1 °F 37.7 °F 37.9 °F 85% 29.96 in 10.0 mi West 6.9 mph - N/A   Clear